Regional Weather Roundup
Issued by NWS

Home | Current Version | Previous Version | Text Only | Print | Product List | Glossary Off
Versions: 1 2 3 4 5 6 7 8 9 10 11 12 13 14 15 16 17 18 19 20 21 22 23 24 25 26 27 28 29 30 31 32 33 34 35 36 37 38 39 40 41 42 43 44 45 46 47 48 49 50

000
ASUS43 KLSX 241410
RWRMO

WEATHER SUMMARY FOR MISSOURI
NATIONAL WEATHER SERVICE SPRINGFIELD MO
900 AM CDT MON JUL 24 2017

NOTE: "FAIR" INDICATES FEW OR NO CLOUDS BELOW 12,000 FEET WITH NO
       SIGNIFICANT WEATHER AND/OR OBSTRUCTIONS TO VISIBILITY.
       CURRENT SKY AND/OR WEATHER CONDITIONS ARE NOT AVAILABLE FOR
       CHILLICOTHE AND FARMINGTON.

MOZ001>031-035>038-043-044-053-054-241500-
...NORTHERN AND WESTERN MISSOURI...

CITY           SKY/WX    TMP DP  RH WIND       PRES   REMARKS
KANSAS CTY INT PTSUNNY   74  65  73 E8        30.03R
KANSAS C DTWN  CLOUDY    76  66  71 E8        30.01R
LEE`S SUMMIT   PTSUNNY   75  66  73 NE9       30.03R
ST JOSEPH      SUNNY     74  65  73 E6        30.03R
CHILLICOTHE      N/A     74  66  76 VRB3      30.04R
KIRKSVILLE     SUNNY     72  64  76 VRB5      30.04R

$$
MOZ066>068-077>081-088>096-101>105-241500-
...SOUTHWEST MISSOURI...

CITY           SKY/WX    TMP DP  RH WIND       PRES   REMARKS
SPRINGFIELD    SUNNY     80  72  76 N7        30.00R
JOPLIN         SUNNY     80  73  79 CALM      30.00R
BRANSON        MOSUNNY   79  72  78 CALM      30.01R

$$
MOZ032>034-039>042-045>050-055>058-069>072-241500-
...CENTRAL MISSOURI...

CITY           SKY/WX    TMP DP  RH WIND       PRES   REMARKS
COLUMBIA       PTSUNNY   76  66  71 NE7       30.01R
JEFFERSON CITY SUNNY     78  67  68 NE7       29.99R
ROLLA          SUNNY     76  67  73 NE8       29.99R
SEDALIA        MOSUNNY   77  70  79 E8        30.02R
WHITEMAN AFB   MOSUNNY   75  69  81 NE7       30.00R
OSAGE BEACH    SUNNY     78  69  73 NE8       30.00R

$$
MOZ051-052-059>065-241500-
...EAST CENTRAL MISSOURI...

CITY           SKY/WX    TMP DP  RH WIND       PRES   REMARKS
ST LOUIS INTL  SUNNY     79  67  66 N6        29.98R
SPIRIT OF STL  MOSUNNY   79  67  66 N6        29.97R
ST CHARLES     SUNNY     77  66  68 VRB5      29.97R

$$
MOZ072>076-082>087-097>100-106>115-241500-
...SOUTH CENTRAL AND SOUTHEAST MISSOURI...

CITY           SKY/WX    TMP DP  RH WIND       PRES   REMARKS
CAPE GIRARDEAU CLOUDY    79  72  79 VRB3      29.95R
FARMINGTON     SUNNY     78  70  76 VRB5      29.98S
POPLAR BLUFF   MOSUNNY   79  75  87 CALM      29.95R
WEST PLAINS    SUNNY     83  67  58 E3        30.00R

$$



USA.gov is the U.S. government's official web portal to all federal, state and local government web resources and services.